Logan, UT

5:03 AM MST on November 17, 2019 (GMT -0700)
Logan-Cache

Weather History for KLGU - August, 2019

Change the Weather History Date:

Tuesday, August 6, 2019

  Actual Average Record
Temperature  
Mean Temperature 75 °F -  
Max Temperature 96 °F 90 °F 99 °F (1979)
Min Temperature 55 °F 54 °F 40 °F (1980)
Cooling Degree Days 10    
Growing Degree Days 25 (Base 50)    
Moisture  
Dew Point 48 °F    
Average Humidity 46    
Maximum Humidity 81    
Minimum Humidity 15    
Precipitation  
Precipitation 0.00 in - - ()
Sea Level Pressure  
Sea Level Pressure 29.87 in    
Wind  
Wind Speed 3 mph (WSW)    
Max Wind Speed 12 mph    
Max Gust Speed -    
Visibility 10 miles    
Events      
Averages and records for this station are not official NWS values.
T = Trace of Precipitation, MM = Missing Value Source: NWS Daily Summary

Daily Weather History Graph

Daily Weather History Graph

Search for Another Location

Airport or City:

Astronomy

Aug. 06, 2019 Rise Set
Actual Time 6:26 AM MDT 8:39 PM MDT
Civil Twilight 5:55 AM MDT 9:10 PM MDT
Nautical Twilight 5:17 AM MDT 9:48 PM MDT
Astronomical Twilight 4:35 AM MDT 10:30 PM MDT
Moon 1:01 PM MDT (8/6) No Moon Set
Length of Visible Light 15h 15m
Length of Day
14h 13m
Waxing Crescent, 39% of the Moon is Illuminated
Aug 6
Waxing Crescent
Aug 7
First Quarter
Aug 15
Full
Aug 23
Last Quarter
Aug 30
New

Hourly Weather History & Observations

Time (MDT) Temp. Dew Point Humidity Pressure Visibility Wind Dir Wind Speed Gust Speed Precip Events Conditions
12:51 AM 63.0 °F 52.0 °F 67% 29.92 in 10.0 mi NW 3.5 mph - N/A   Clear
1:51 AM 57.9 °F 52.0 °F 81% 29.92 in 10.0 mi Calm Calm - N/A   Clear
2:51 AM 59.0 °F 50.0 °F 72% 29.91 in 10.0 mi NNW 4.6 mph - N/A   Clear
3:51 AM 55.9 °F 50.0 °F 80% 29.90 in 10.0 mi Calm Calm - N/A   Clear
4:51 AM 55.0 °F 48.9 °F 80% 29.92 in 10.0 mi Calm Calm - N/A   Clear
5:51 AM 55.9 °F 50.0 °F 80% 29.93 in 10.0 mi Calm Calm - N/A   Clear
6:51 AM 57.9 °F 50.0 °F 75% 29.95 in 10.0 mi Calm Calm - N/A   Clear
7:51 AM 61.0 °F 51.1 °F 70% 29.96 in 10.0 mi Calm Calm - N/A   Clear
8:51 AM 68.0 °F 46.9 °F 47% 29.95 in 10.0 mi South 3.5 mph - N/A   Clear
9:51 AM 73.0 °F 48.9 °F 42% 29.94 in 10.0 mi Calm Calm - N/A   Clear
10:51 AM 77.0 °F 50.0 °F 39% 29.93 in 10.0 mi NNW 11.5 mph - N/A   Clear
11:51 AM 82.9 °F 50.0 °F 32% 29.93 in 10.0 mi NNE 6.9 mph - N/A   Clear
12:51 PM 88.0 °F 50.0 °F 27% 29.89 in 10.0 mi Calm Calm - N/A   Clear
1:51 PM 90.0 °F 48.0 °F 24% 29.87 in 10.0 mi West 3.5 mph - N/A   Clear
2:51 PM 95.0 °F 46.9 °F 19% 29.83 in 10.0 mi NNE 8.1 mph - N/A   Clear
3:51 PM 93.9 °F 45.0 °F 18% 29.82 in 10.0 mi South 9.2 mph - N/A   Clear
4:51 PM 95.0 °F 43.0 °F 17% 29.81 in 10.0 mi South 6.9 mph - N/A   Clear
5:51 PM 95.0 °F 41.0 °F 15% 29.79 in 10.0 mi SW 3.5 mph - N/A   Clear
6:51 PM 95.0 °F 39.9 °F 15% 29.77 in 10.0 mi SSW 4.6 mph - N/A   Clear
7:51 PM 93.0 °F 41.0 °F 16% 29.77 in 10.0 mi South 4.6 mph - N/A   Clear
8:51 PM 77.0 °F 53.1 °F 43% 29.80 in 10.0 mi Variable 6.9 mph - N/A   Clear
9:51 PM 73.0 °F 53.1 °F 49% 29.82 in 10.0 mi Calm Calm - N/A   Clear
10:51 PM 75.0 °F 50.0 °F 41% 29.81 in 10.0 mi SSW 11.5 mph - N/A   Clear
11:51 PM 64.0 °F 51.1 °F 63% 29.81 in 10.0 mi West 3.5 mph - N/A   Clear